カタログに戻る

RAVEN

運用中軍事SSO
NORAD 69016·PAYLOAD·🇺🇸 United States

打ち上げ May 3, 2026 から Vandenberg Space Force Base

Loading…

次のパス (今後24時間)

TLE

最新Source: Space-Track

元期: Sep 14, 2026, 12:02 UTC

1 69016U 26100AN  26257.50188109  .00001944  00000-0  88818-4 0  9990
2 69016  97.3902 153.8519 0009634  95.6011 264.6324 15.21728772 20393

AllMySatでRAVENをリアルタイム追跡

Download on the App Store